Regional Weather Roundup
Issued by NWS

Home | Current Version | Previous Version | Graphics & Text | Print | Product List | Glossary On
Versions: 1 2 3 4 5 6 7 8 9 10 11 12 13 14 15 16 17 18 19 20 21 22 23 24 25 26 27 28 29 30 31 32 33 34 35 36 37 38 39 40 41 42 43 44 45 46 47 48 49 50
000
ASUS43 KOAX 261210
RWRNE

WEATHER ROUNDUP FOR NEBRASKA
NATIONAL WEATHER SERVICE OMAHA NE
700 AM CDT MON JUN 26 2017

NOTES: SATELLITE DATA IS BEING USED TO AUGMENT CLOUD COVER ABOVE
       12000 FEET.
       "FAIR" INDICATES FEW OR NO CLOUDS BELOW 12,000 FEET WITH NO
       SIGNIFICANT WEATHER AND/OR OBSTRUCTIONS TO VISIBILITY.

  * THESE STATIONS DO NOT REPORT WEATHER SUCH AS RAIN...SNOW OR FOG.

NEZ001>004-019>022-054>056-261300-
NEBRASKA PANHANDLE

CITY           SKY/WX    TMP DP  RH WIND       PRES   REMARKS
SCOTTSBLUFF    CLEAR     54  46  74 NE10      30.24R
6HR MIN TEMP:  54; 6HR MAX TEMP:  64;

ALLIANCE       CLEAR     50  48  93 N6        30.23S
6HR MIN TEMP:  46; 6HR MAX TEMP:  58;

CHADRON        PTCLDY    41  38  89 W3        30.26R
6HR MIN TEMP:  41; 6HR MAX TEMP:  54;

GORDON         FAIR      45  40  82 CALM      30.25R HAZE
6HR MIN TEMP:  43; 6HR MAX TEMP:  59;

KIMBALL        CLEAR     53  53 100 W8        30.28R
SIDNEY         MOCLDY    53  52  96 W7        30.25S
6HR MIN TEMP:  50; 6HR MAX TEMP:  56;

$$

NEZ057>060-069>072-079>082-261300-
SOUTHWEST NEBRASKA

CITY           SKY/WX    TMP DP  RH WIND       PRES   REMARKS
NORTH PLATTE   CLOUDY    59  57  93 NW5       30.23R
6HR MIN TEMP:  51; 6HR MAX TEMP:  60;

IMPERIAL       FOG       50  49  96 S3        30.23S VSB 1/4
6HR MIN TEMP:  48; 6HR MAX TEMP:  58;

LEXINGTON      CLOUDY    62  57  86 W7        30.22R
MCCOOK         CLOUDY    60  58  92 SW6       30.23S
6HR MIN TEMP:  58; 6HR MAX TEMP:  61;

OGALLALA       MOCLDY    53  52  96 CALM      30.23S FOG
$$

NEZ005>010-023>029-035>040-094-261300-
NORTH CENTRAL NEBRASKA

CITY           SKY/WX    TMP DP  RH WIND       PRES   REMARKS
VALENTINE      CLEAR     54  42  64 NE7       30.23R
6HR MIN TEMP:  52; 6HR MAX TEMP:  63;

AINSWORTH      CLEAR     49  46  89 CALM      30.22S
BROKEN BOW     MOCLDY    59  56  89 W13       30.20S
6HR MIN TEMP:  56; 6HR MAX TEMP:  60;

O`NEILL        PTCLDY    53  50  89 N6        30.19S
ORD            PTCLDY    57  53  86 N5        30.19R
6HR MIN TEMP:  54; 6HR MAX TEMP:  62;

THEDFORD       PTCLDY    55  53  95 W3        30.22S
$$

NEZ041-046>049-061>064-073>077-083>087-261300-
SOUTH CENTRAL NEBRASKA

CITY           SKY/WX    TMP DP  RH WIND       PRES   REMARKS
GRAND ISLAND   PTCLDY    59  56  89 W13       30.20F
6HR MIN TEMP:  58; 6HR MAX TEMP:  62;

AURORA         PTCLDY    58  55  92 W8        30.20S
HASTINGS       PTCLDY    59  54  83 W6        30.23R
6HR MIN TEMP:  56; 6HR MAX TEMP:  61;

HEBRON         CLOUDY    59  55  84 W3        30.21S
HOLDREGE       PTCLDY    57  55  92 W8        30.22F
KEARNEY *      PTCLDY    59  54  82 W7        30.22S
YORK           CLOUDY    59  54  82 W8        30.20S
$$

NEZ011>018-030>034-042>045-261300-
NORTHEAST NEBRASKA

CITY           SKY/WX    TMP DP  RH WIND       PRES   REMARKS
NORFOLK        PTCLDY    56  49  77 SE3       30.17F
6HR MIN TEMP:  53; 6HR MAX TEMP:  62;

ALBION         CLEAR     58  52  80 CALM      30.20S
BLAIR          CLOUDY    56  52  86 SE3       30.19F
FREMONT        LGT RAIN  56  55  94 E6        30.20S
TEKAMAH        CLOUDY    56  52  86 SE8       30.19F
6HR MIN TEMP:  52; 6HR MAX TEMP:  62; 6HR PCP:  0.05;

WAYNE          MOSUNNY   53  53  99 N5        30.20R
$$

NEZ050>053-065>068-078-088>093-261300-
SOUTHEAST NEBRASKA

CITY           SKY/WX    TMP DP  RH WIND       PRES   REMARKS
LINCOLN        LGT RAIN  61  53  75 N7        30.22R
6HR MIN TEMP:  57; 6HR MAX TEMP:  63; 6HR PCP: TRACE;

OMAHA EPPLEY   CLOUDY    58  51  78 E8        30.18F THUNDER
6HR MIN TEMP:  56; 6HR MAX TEMP:  63; 6HR PCP:  0.10;

BEATRICE       LGT RAIN  59  55  86 N6        30.21R
FALLS CITY     CLOUDY    57  53  86 SE3       30.21R
6HR MIN TEMP:  50; 6HR MAX TEMP:  57;

NEBRASKA CITY  CLOUDY    58  58 100 N3        30.23R THUNDER
PLATTSMOUTH    CLOUDY    57  54  89 E5        30.21R THUNDER
$$

NEZ044-045-051>053-067-261300-
OMAHA AREA

CITY           SKY/WX    TMP DP  RH WIND       PRES   REMARKS
OMAHA EPPLEY   CLOUDY    58  51  78 E8        30.18F THUNDER
6HR MIN TEMP:  56; 6HR MAX TEMP:  63; 6HR PCP:  0.10;

BLAIR          CLOUDY    56  52  86 SE3       30.19F
FREMONT        LGT RAIN  56  55  94 E6        30.20S
MILLARD        TSTM      59  55  84 NW3       30.22S
OFFUTT AFB     TSTM      57  54  88 NE6       30.19F
PLATTSMOUTH    CLOUDY    57  54  89 E5        30.21R THUNDER
WAHOO          CLOUDY    59  49  71 E3        30.21R
$$




USA.gov is the U.S. government's official web portal to all federal, state and local government web resources and services.